Starlink 30992

operational
NORAD ID: 58524 Int'l Des: 2023-191 Owner: SPXS Country: US Constellation: starlink
LEOCIRCULAR

About Starlink 30992

Description loading...

Live Position

Loading 3D Globe...

Upcoming Passes

Altitude History

Altitude vs Time

uPlot chart will show altitude changes over time

Two-Line Element Set

1 58524U 23191S 25351.00244603 .00000202 00000-0 30038-4 0 9997
2 58524 43.0032 195.2274 0001224 265.2777 94.7925 15.02546696113008
Epoch: Dec 17, 2025 • Age: 16 hours

Current Status

Altitude 561.5 km
Velocity 7.59 km/s
Sub-Earth Point 36.10°N, 88.09°W
Launch Date Dec 7, 2023
Age 2 years
Type internet

Technical Details

Classification Payload
Mass 730.00 kg
Dry Mass 700.00 kg
Total Mass 730.00 kg
Length 0.30 m
Diameter 4.10 m
Span 29.00 m
Shape Box + pan
Manufacturer SPXS
Bus Type Starlink V2M
Phase Status In Orbit
Owner/State SPXS/US

Large Constellations

Loading constellations...